Vorticity
7 6 4 6 5 6 6 6 6 5 5 5 5 6 6 7 9 8 6 2 0 3 7 13 12 8 4 3 3 1 6 7 2 3 3 4 3 4 7 5 4 3 2
6 4 6 1 6 5 4 4 5 4 4 4 4 3 3 3 3 4 3 4 4 8 10 6 1 -1 7 14 11 5 2 2 2 9 3 2 3 3 2 6 5 4 3
6 7 4 4 6 5 4 5 4 3 3 2 2 2 2 2 2 2 3 3 3 3 3 3 3 5 8 7 2 2 13 11 4 3 2 6 7 2 3 3 3 8 6
6 5 5 4 5 5 5 4 4 3 2 2 1 2 2 3 3 3 3 3 3 2 2 2 1 1 2 2 0 7 7 5 7 15 7 3 2 3 7 5 3 2 3
6 4 4 5 5 5 4 4 3 3 2 3 2 2 2 3 3 3 4 4 3 3 3 3 3 3 2 1 -1 1 1 2 1 5 5 11 10 5 4 2 3 6 4
5 4 6 5 4 4 4 3 3 2 2 2 2 1 3 3 3 4 3 4 3 3 3 3 3 4 4 5 5 4 4 2 2 3 2 4 5 7 10 9 5 3 2
4 4 5 5 4 4 3 2 2 2 2 1 1 2 2 2 3 5 4 6 5 4 6 5 5 5 9 6 7 7 7 8 7 4 4 2 0 1 2 5 8 9 9
4 5 4 4 3 2 2 3 3 3 1 2 2 1 2 1 3 9 7 8 8 11 10 10 11 10 11 12 12 11 10 9 9 9 8 7 6 5 4 2 2 3 7
6 4 4 3 2 3 3 3 3 3 2 1 5 4 12 13 14 12 12 11 11 11 11 11 11 11 11 11 12 12 12 14 14 13 12 11 9 8 7 7 7 6 4
4 3 3 3 4 3 2 3 2 2 1 4 4 13 16 11 12 12 12 11 9 8 7 6 5 5 5 5 5 4 4 4 5 6 7 9 12 15 13 13 10 8 7
3 3 3 3 2 1 1 2 3 4 4 5 24 11 10 10 7 5 5 5 6 5 5 6 7 7 5 4 4 3 3 3 3 4 5 5 5 5 5 6 10 14 14
3 4 2 2 2 3 3 4 4 -0 6 17 16 10 6 4 4 4 5 6 5 6 6 6 5 4 4 6 7 8 8 7 6 4 3 3 4 4 4 4 3 4 5
3 2 2 2 1 -0 0 -0 1 5 17 12 8 6 5 3 2 1 1 3 3 3 3 2 2 2 1 2 2 3 3 2 2 3 5 4 3 2 2 2 2 1 4
1 2 1 1 0 0 1 2 4 12 11 9 6 5 4 3 2 2 2 3 3 3 2 2 3 3 4 3 4 5 4 4 3 4 5 5 5 5 4 3 1 6 2
1 1 1 1 1 3 1 0 7 7 9 8 6 6 4 3 3 2 2 2 3 3 3 4 5 10 13 12 12 11 11 12 12 13 13 11 8 5 4 5 7 6 2
1 1 1 0 4 1 2 2 7 7 9 9 6 5 4 3 2 2 2 2 1 2 7 12 15 18 16 15 16 17 17 16 15 14 14 15 18 21 25 24 17 15 10
0 2 -0 4 2 3 -1 9 6 11 8 4 1 2 2 2 2 2 2 2 5 10 15 19 15 15 19 18 11 9 10 9 10 11 10 11 7 6 6 6 6 8 11
3 -0 3 2 0 0 7 10 11 7 3 4 4 3 3 4 3 2 6 13 22 24 16 16 19 17 12 6 4 6 7 8 9 10 7 5 7 10 7 5 8 7 7
1 2 1 -0 3 6 10 8 4 4 4 4 4 4 3 2 7 16 24 14 10 13 15 24 14 2 1 3 5 9 9 11 11 15 15 16 19 11 9 21 28 29 16
2 1 1 2 2 8 8 4 4 4 4 4 3 5 10 16 19 7 11 15 16 23 21 -1 1 -1 2 9 13 17 12 11 11 8 9 13 19 12 3 18 26 39 33
2 1 1 2 7 8 5 4 4 9 13 13 12 14 14 9 9 14 22 28 15 13 0 2 1 11 21 17 9 8 9 8 7 6 4 4 11 17 8 14 11 19 35
1 2 5 6 6 5 4 9 16 6 8 21 17 11 9 23 38 24 9 17 6 2 3 11 19 12 7 7 10 8 4 5 7 7 5 3 5 4 9 8 17 13 12
5 6 5 6 4 4 10 13 7 2 21 33 31 20 24 -0 1 16 6 2 7 12 10 9 11 9 5 4 5 7 5 7 11 7 8 5 3 5 6 4 9 8 14
3 5 5 3 4 12 14 4 6 11 1 19 26 18 2 10 11 8 2 2 5 4 4 7 7 5 4 7 8 7 3 4 6 8 7 6 8 5 3 6 6 5 8
5 3 3 4 13 12 3 9 5 7 11 3 3 9 12 11 5 6 4 -1 2 -1 1 4 4 4 5 4 4 8 6 5 3 1 2 5 5 9 9 7 7 7 6
3 3 3 15 11 5 5 10 3 13 11 9 13 12 6 5 9 10 4 3 2 2 3 5 5 5 5 6 5 5 6 8 10 8 7 4 6 9 6 8 7 6 6
Height
5892 5892 5892 5891 5891 5890 5890 5890 5890 5890 5890 5890 5889 5889 5889 5888 5888 5888 5887 5886 5886 5885 5884 5883 5883 5882 5881 5881 5881 5881 5880 5879 5879 5878 5877 5877 5877 5876 5876 5876 5876 5876 5876
5891 5890 5891 5891 5891 5890 5890 5890 5890 5890 5890 5890 5890 5889 5889 5889 5888 5887 5887 5886 5885 5884 5884 5883 5882 5881 5880 5879 5878 5878 5878 5877 5877 5876 5875 5875 5875 5874 5874 5874 5873 5873 5874
5889 5889 5890 5889 5889 5890 5890 5890 5890 5890 5890 5890 5890 5889 5889 5888 5887 5886 5885 5885 5884 5883 5882 5881 5880 5879 5878 5877 5876 5875 5874 5874 5874 5874 5873 5872 5872 5872 5872 5871 5871 5871 5870
5887 5888 5888 5889 5889 5889 5889 5889 5889 5889 5889 5889 5889 5888 5888 5887 5886 5885 5884 5882 5881 5880 5879 5879 5878 5877 5875 5874 5873 5873 5872 5871 5870 5870 5870 5869 5869 5869 5869 5868 5868 5868 5868
5885 5886 5887 5888 5888 5888 5888 5888 5889 5888 5888 5887 5887 5887 5886 5885 5884 5882 5882 5880 5879 5878 5876 5875 5874 5873 5872 5870 5870 5869 5868 5867 5867 5866 5865 5865 5865 5865 5864 5864 5864 5864 5864
5883 5885 5886 5886 5887 5887 5887 5887 5888 5887 5887 5886 5885 5885 5883 5882 5880 5879 5878 5877 5875 5874 5872 5871 5870 5868 5867 5866 5865 5863 5863 5863 5862 5861 5861 5860 5860 5860 5859 5859 5859 5859 5859
5881 5883 5884 5885 5886 5886 5886 5886 5887 5886 5885 5884 5883 5882 5881 5879 5877 5875 5873 5871 5870 5868 5867 5866 5864 5863 5862 5860 5859 5858 5857 5857 5857 5856 5855 5855 5855 5855 5855 5854 5853 5853 5853
5879 5881 5883 5884 5885 5885 5885 5885 5885 5884 5883 5881 5880 5879 5877 5875 5873 5870 5868 5866 5865 5863 5861 5860 5858 5857 5856 5854 5853 5852 5851 5850 5850 5850 5850 5849 5848 5848 5848 5848 5848 5847 5847
5877 5880 5881 5882 5883 5884 5884 5883 5883 5882 5881 5879 5877 5876 5873 5870 5868 5865 5863 5861 5860 5858 5856 5855 5853 5852 5850 5849 5847 5846 5845 5845 5843 5843 5843 5842 5841 5841 5842 5842 5842 5841 5841
5876 5878 5879 5880 5881 5881 5881 5880 5880 5879 5878 5876 5873 5870 5868 5866 5864 5863 5861 5859 5857 5855 5853 5851 5849 5847 5846 5844 5843 5842 5840 5839 5838 5837 5837 5836 5835 5834 5833 5834 5834 5833 5833
5873 5875 5876 5877 5878 5878 5877 5877 5876 5875 5874 5871 5868 5866 5864 5862 5860 5859 5857 5855 5853 5851 5849 5847 5845 5843 5841 5839 5837 5836 5834 5833 5832 5831 5830 5829 5829 5828 5827 5825 5824 5824 5825
5871 5872 5873 5874 5874 5874 5874 5873 5872 5871 5869 5865 5863 5861 5860 5858 5856 5855 5853 5851 5849 5846 5844 5842 5840 5837 5836 5834 5832 5830 5828 5826 5825 5824 5823 5821 5821 5821 5819 5818 5817 5817 5817
5868 5869 5870 5870 5871 5871 5870 5869 5867 5865 5863 5860 5858 5857 5855 5853 5851 5849 5847 5845 5843 5841 5839 5836 5833 5830 5828 5826 5824 5822 5820 5818 5817 5816 5814 5813 5813 5812 5811 5811 5809 5809 5810
5865 5866 5867 5867 5867 5867 5865 5864 5863 5860 5858 5855 5853 5852 5849 5847 5845 5843 5841 5839 5836 5834 5831 5829 5826 5823 5821 5818 5815 5813 5811 5809 5808 5807 5805 5804 5803 5802 5801 5800 5800 5800 5799
5861 5863 5863 5863 5863 5862 5861 5859 5857 5855 5852 5850 5848 5846 5845 5842 5840 5837 5835 5832 5829 5825 5822 5819 5816 5814 5811 5808 5805 5803 5801 5799 5798 5797 5796 5794 5794 5793 5792 5790 5790 5790 5790
5858 5859 5859 5859 5858 5857 5856 5854 5852 5849 5847 5845 5842 5840 5838 5836 5833 5830 5826 5823 5819 5816 5813 5809 5806 5803 5800 5798 5795 5794 5792 5790 5788 5787 5785 5784 5783 5781 5781 5780 5779 5779 5779
5854 5855 5855 5854 5853 5852 5850 5848 5846 5844 5841 5839 5836 5833 5830 5827 5824 5821 5817 5814 5810 5806 5802 5799 5796 5793 5791 5789 5788 5786 5784 5782 5781 5779 5777 5775 5773 5772 5770 5769 5767 5765 5765
5850 5850 5849 5849 5848 5846 5844 5842 5839 5837 5834 5831 5828 5825 5822 5819 5816 5812 5808 5803 5799 5795 5792 5790 5788 5786 5785 5783 5781 5779 5777 5775 5772 5770 5768 5766 5765 5763 5761 5758 5755 5753 5752
5844 5844 5844 5843 5842 5839 5837 5835 5832 5830 5827 5823 5820 5817 5814 5810 5806 5802 5797 5793 5790 5787 5785 5783 5782 5781 5779 5776 5774 5772 5769 5767 5764 5762 5760 5758 5756 5754 5751 5746 5741 5737 5737
5839 5839 5838 5837 5836 5833 5831 5828 5825 5822 5819 5815 5812 5808 5804 5800 5796 5792 5788 5785 5782 5779 5778 5778 5777 5775 5772 5769 5766 5764 5762 5760 5757 5754 5752 5750 5747 5744 5741 5735 5729 5724 5724
5833 5832 5832 5831 5829 5827 5824 5821 5818 5814 5810 5806 5801 5798 5794 5791 5787 5783 5780 5777 5776 5774 5774 5773 5770 5768 5765 5763 5760 5759 5756 5753 5750 5748 5745 5742 5739 5735 5731 5725 5720 5716 5716
5828 5827 5826 5824 5822 5819 5817 5813 5809 5806 5801 5795 5790 5788 5786 5783 5779 5776 5774 5773 5771 5769 5768 5766 5763 5761 5759 5757 5755 5752 5749 5747 5744 5741 5738 5735 5731 5728 5724 5720 5716 5713 5711
5822 5821 5819 5816 5813 5811 5809 5805 5802 5798 5791 5784 5780 5779 5779 5777 5774 5772 5770 5768 5766 5764 5762 5759 5757 5756 5753 5750 5748 5746 5743 5739 5736 5733 5731 5727 5724 5720 5716 5712 5709 5707 5705
5815 5813 5810 5807 5805 5803 5800 5798 5795 5791 5786 5780 5776 5775 5773 5771 5768 5767 5765 5763 5761 5759 5756 5754 5752 5750 5747 5744 5741 5738 5736 5732 5729 5724 5722 5720 5717 5713 5709 5705 5702 5699 5697
5806 5803 5801 5799 5797 5795 5793 5791 5788 5785 5780 5777 5774 5771 5769 5766 5763 5761 5759 5757 5755 5753 5750 5747 5745 5742 5739 5736 5733 5730 5726 5723 5720 5717 5712 5710 5707 5705 5702 5698 5694 5691 5688
5797 5795 5793 5792 5790 5788 5786 5784 5781 5778 5774 5771 5768 5766 5763 5761 5758 5755 5753 5751 5748 5745 5743 5740 5737 5734 5731 5727 5724 5721 5717 5714 5710 5707 5703 5699 5695 5692 5690 5687 5684 5682 5679